Weather History for EKKA - September, 2013

Change the Weather History Date:

Sunday, September 8, 2013

  Actual Average Record
Temperature  
Mean Temperature 65 °F -  
Max Temperature 72 °F 60 °F 75 °F (2002)
Min Temperature 57 °F 46 °F 35 °F (1996)
Growing Degree Days 15 (Base 50)    
Moisture  
Dew Point 57 °F    
Average Humidity 78    
Maximum Humidity 100    
Minimum Humidity 45    
Precipitation  
Precipitation 0.00 in - - ()
Sea Level Pressure  
Sea Level Pressure 30.05 in    
Wind  
Wind Speed 9 mph ()    
Max Wind Speed 18 mph    
Max Gust Speed 31 mph    
Visibility 6.7 miles    
Events Rain    
Averages and records for this station are not official NWS values.
T = Trace of Precipitation, MM = Missing Value Source: Averaged Metar Reports

Daily Weather History Graph

Daily Weather History Graph

Search for Another Location

Airport or City:

Trip Planner

Search our weather history database for the weather conditions in past years. The results will help you decide how hot, cold, wet, or windy it might be!

Date:

Astronomy

Sep. 08, 2013 Rise Set
Actual Time 6:41 AM CEST 7:59 PM CEST
Civil Twilight 6:02 AM CEST 8:38 PM CEST
Nautical Twilight 5:14 AM CEST 9:25 PM CEST
Astronomical Twilight 4:20 AM CEST 10:19 PM CEST
Moon 10:25 AM CEST (9/8) 8:37 PM CEST (9/8)
Length of Visible Light 14h 36m
Length of Day
13h 18m
Waxing Crescent, 9% of the Moon is Illuminated
Sep 8
Waxing Crescent
Sep 12
First Quarter
Sep 19
Full
Sep 27
Last Quarter
Oct 5
New

Hourly Weather History & Observations

Time (CEST) Temp. Dew Point Humidity Pressure Visibility Wind Dir Wind Speed Gust Speed Precip Events Conditions
12:20 AM 64.4 °F 57.2 °F 77% 30.12 in - ESE 8.1 mph - N/A   Clear
12:51 AM 62.6 °F 57.2 °F 82% 30.12 in - ESE 10.4 mph - N/A   Clear
1:20 AM 62.6 °F 57.2 °F 82% 30.12 in - ESE 9.2 mph - N/A   Clear
1:50 AM 62.6 °F 57.2 °F 82% 30.12 in - ESE 5.8 mph - N/A   Clear
2:00 AM 62 °F 57 °F 78% 30.14 in 9 mi ESE 6.9 mph - -   Partly Cloudy
2:20 AM 60.8 °F 57.2 °F 88% 30.12 in - ESE 6.9 mph - N/A   Clear
2:50 AM 60.8 °F 57.2 °F 88% 30.12 in 6.2 mi ESE 5.8 mph - N/A Rain Light Rain Showers
3:21 AM 60.8 °F 59.0 °F 94% 30.12 in 6.2 mi East 8.1 mph - N/A   Mostly Cloudy
3:50 AM 60.8 °F 57.2 °F 88% 30.12 in 6.2 mi ESE 5.8 mph - N/A   Mostly Cloudy
4:21 AM 60.8 °F 59.0 °F 94% 30.12 in - East 5.8 mph - N/A   Clear
4:50 AM 60.8 °F 57.2 °F 88% 30.12 in - ESE 6.9 mph - N/A   Clear
5:20 AM 59.0 °F 57.2 °F 94% 30.12 in - East 5.8 mph - N/A   Clear
5:50 AM 59.0 °F 57.2 °F 94% 30.09 in - East 8.1 mph - N/A   Clear
6:21 AM 59.0 °F 57.2 °F 94% 30.09 in - ESE 8.1 mph - N/A   Clear
6:50 AM 59.0 °F 57.2 °F 94% 30.09 in - ESE 6.9 mph - N/A   Clear
7:20 AM 59.0 °F 57.2 °F 94% 30.09 in - East 8.1 mph - N/A   Clear
7:50 AM 60.8 °F 57.2 °F 88% 30.09 in - East 6.9 mph - N/A   Clear
8:00 AM 60 °F 58 °F 91% 30.09 in 12 mi East 9.2 mph - -   Partly Cloudy
8:20 AM 60.8 °F 59.0 °F 94% 30.09 in - East 9.2 mph - N/A   Clear
8:50 AM 60.8 °F 59.0 °F 94% 30.09 in - ESE 10.4 mph - N/A   Clear
9:20 AM 64.4 °F 59.0 °F 83% 30.06 in - East 10.4 mph - N/A   Clear
9:50 AM 66.2 °F 57.2 °F 73% 30.06 in - ESE 10.4 mph - N/A   Clear
10:20 AM 66.2 °F 57.2 °F 73% 30.06 in - East 11.5 mph - N/A   Clear
10:50 AM 66.2 °F 57.2 °F 73% 30.06 in - ESE 13.8 mph - N/A   Clear
11:00 AM 68 °F 57 °F 59% 30.06 in 16 mi ESE 15.0 mph - -   Scattered Clouds
11:20 AM 68.0 °F 57.2 °F 68% 30.06 in - East 12.7 mph - N/A   Clear
11:50 AM 68.0 °F 57.2 °F 68% 30.04 in - ESE 15.0 mph - N/A   Clear
12:10 PM 68.0 °F 57.2 °F 68% 30.04 in - ESE 17.3 mph 29.9 mph N/A   Clear
12:20 PM 68.0 °F 55.4 °F 64% 30.04 in - ESE 16.1 mph - N/A   Clear
12:50 PM 69.8 °F 57.2 °F 64% 30.04 in - ESE 13.8 mph - N/A   Clear
1:20 PM 71.6 °F 55.4 °F 57% 30.01 in - ESE 15.0 mph - N/A   Clear
1:50 PM 71.6 °F 55.4 °F 57% 30.01 in - ESE 18.4 mph - N/A   Clear
2:00 PM 72 °F 55 °F 45% 30.01 in 16 mi ESE 16.1 mph - -   Overcast
2:20 PM 71.6 °F 53.6 °F 53% 30.01 in - ESE 15.0 mph 26.5 mph N/A   Clear
2:50 PM 71.6 °F 53.6 °F 53% 29.98 in - ESE 18.4 mph - N/A   Clear
3:20 PM 71.6 °F 53.6 °F 53% 29.98 in - ESE 16.1 mph 31.1 mph N/A   Clear
3:50 PM 71.6 °F 53.6 °F 53% 29.98 in - ESE 17.3 mph - N/A   Clear
4:20 PM 71.6 °F 55.4 °F 57% 29.98 in - ESE 13.8 mph - N/A   Clear
4:50 PM 69.8 °F 53.6 °F 56% 29.98 in - ESE 15.0 mph - N/A   Clear
5:00 PM 70 °F 54 °F 47% 29.98 in 16 mi SE 13.8 mph - -   Overcast
5:20 PM 69.8 °F 53.6 °F 56% 29.98 in - SE 15.0 mph - N/A   Clear
5:50 PM 68.0 °F 53.6 °F 60% 29.98 in - ESE 13.8 mph 25.3 mph N/A   Clear
6:20 PM 68.0 °F 53.6 °F 60% 29.95 in - SE 13.8 mph - N/A   Clear
6:50 PM 68.0 °F 53.6 °F 60% 29.98 in 6.2 mi SE 12.7 mph - N/A   Mostly Cloudy
7:20 PM 66.2 °F 55.4 °F 68% 29.98 in 6.2 mi SE 11.5 mph - N/A   Mostly Cloudy
7:50 PM 64.4 °F 55.4 °F 73% 29.98 in 6.2 mi SSE 11.5 mph - N/A Rain Light Rain
8:00 PM 64 °F 56 °F 70% 30.00 in 12 mi SSE 9.2 mph - - Rain Light Rain
8:20 PM 62.6 °F 57.2 °F 82% 29.98 in 5.0 mi SSE 8.1 mph - N/A Rain Light Rain
8:47 PM 60.8 °F 59.0 °F 94% 30.01 in 3.1 mi SSE 5.8 mph - N/A Rain Light Rain
8:50 PM 60.8 °F 59.0 °F 94% 30.01 in 3.1 mi SSE 5.8 mph - N/A Rain Light Rain
9:06 PM 60.8 °F 59.0 °F 94% 30.01 in 3.1 mi South 3.5 mph - N/A Rain Light Rain
9:11 PM 60.8 °F 59.0 °F 94% 30.01 in 2.5 mi SSW 3.5 mph - N/A Rain Light Rain
9:20 PM 60.8 °F 59.0 °F 94% 30.01 in 2.5 mi SSW 5.8 mph - N/A Rain Light Rain
9:51 PM 59.0 °F 59.0 °F 100% 30.01 in 3.7 mi WSW 10.4 mph - N/A   Mostly Cloudy
10:20 PM 59.0 °F 57.2 °F 94% 30.04 in 3.7 mi WSW 9.2 mph - N/A   Mostly Cloudy
10:50 PM 59.0 °F 57.2 °F 94% 30.04 in 4.3 mi WSW 6.9 mph - N/A   Mostly Cloudy
11:00 PM 58 °F 57 °F 96% 30.04 in 4 mi WSW 5.8 mph - -   Mist
11:20 PM 59.0 °F 57.2 °F 94% 30.04 in 4.3 mi SW 6.9 mph - N/A   Mostly Cloudy
11:50 PM 57.2 °F 57.2 °F 100% 30.04 in 4.3 mi WSW 6.9 mph - N/A   Mostly Cloudy